Regional Weather Roundup
Issued by NWS Charleston, SC

Current Version | Previous Version | Graphics & Text | Print | Product List | Glossary On
Versions: 1 2 3 4 5 6 7 8 9 10 11 12 13 14 15 16 17 18 19 20 21 22 23 24 25 26 27 28 29 30 31 32 33 34 35 36 37 38 39 40 41 42 43 44 45 46 47 48 49 50
000
ASUS42 KCHS 241825
RWRCHS

REGIONAL WEATHER ROUNDUP
NATIONAL WEATHER SERVICE CHARLESTON SC
200 PM EDT FRI OCT 24 2014

NOTE: "FAIR" INDICATES FEW OR NO CLOUDS BELOW 12,000 FEET WITH NO
SIGNIFICANT WEATHER AND/OR OBSTRUCTIONS TO VISIBILITY.

NOT ALL STATIONS ARE QUALITY CONTROLLED BY THE NATIONAL
WEATHER SERVICE. USE DATA WITH CAUTION...ESPECIALLY
DEWPOINT OBSERVATIONS.

SCZ027-030-031-034>040-042>050-241900-
...SOUTH CAROLINA...

CITY           SKY/WX    TMP DP  RH WIND       PRES   REMARKS
N CHARLESTON   MOSUNNY   74  47  38 CALM      30.01F
6HR MIN TEMP:  51; 6HR MAX TEMP:  74;

WATERFRONT PRK   N/A     70 N/A N/A NE6         N/A
FORT JOHNSON   NOT AVBL
JOHNS ISLAND   CLEAR     73  46  38 CALM      30.01F
PINOPOLIS      NOT AVBL
MONCKS CORNER  FAIR      70  50  49 N5        30.01F
SUMMERVILLE    FAIR      72  48  43 CALM      30.02F
BEAUFORT MCAS  MOSUNNY   72  45  37 CALM      30.02F
6HR MIN TEMP:  49; 6HR MAX TEMP:  72;

BEAUFORT ARPT  FAIR      72  46  40 E3        30.01F
HILTON HEAD IS SUNNY     70  50  49 CALM      30.04F
GEORGETOWN     NOT AVBL
WALTERBORO     CLEAR     72  39  30 NW3       30.01F
ORANGEBURG     SUNNY     70  46  42 W5        30.02F
6HR MIN TEMP:  47; 6HR MAX TEMP:  71;

BARNWELL       FAIR      72  45  37 CALM      30.02F
AIKEN          FAIR      72  46  40 CALM      30.05F
MANNING        FAIR      70  46  43 CALM      30.00F
KINGSTREE      NOT AVBL
COLUMBIA       MOSUNNY   69  43  38 VRB3      30.02F
6HR MIN TEMP:  46; 6HR MAX TEMP:  70;

SUMTER         SUNNY     69  46  43 VRB2      29.99F
6HR MIN TEMP:  46; 6HR MAX TEMP:  69; 6HR PCP: TRACE;

FLORENCE       MOSUNNY   69  45  41 W6        30.01F
6HR MIN TEMP:  47; 6HR MAX TEMP:  69;

MYRTLE BEACH   MOSUNNY   68  46  45 N8        30.02F
N MYRTLE BEACH SUNNY     66  47  50 CALM      30.00F
6HR MIN TEMP:  49; 6HR MAX TEMP:  68;


$$

GAZ063-065-086>088-099>101-113>116-118-119-134-136>141-150-241900-
...GEORGIA...

CITY           SKY/WX    TMP DP  RH WIND       PRES   REMARKS
SAVANNAH ARPT  MOSUNNY   73  42  32 CALM      30.02F
6HR MIN TEMP:  50; 6HR MAX TEMP:  75;

HUNTER AAF     SUNNY     72  45  37 S3        30.00F
6HR MIN TEMP:  49; 6HR MAX TEMP:  73;

FORT STEWART   SUNNY     72  45  37 NE7       30.01F
6HR MIN TEMP:  46; 6HR MAX TEMP:  72;

STATESBORO     NOT AVBL
SYLVANIA       CLEAR     77  49  37 CALM      30.02F
CLAXTON        FAIR      73  46  38 CALM      30.01F
THOMSON        MOSUNNY   73  53  48 CALM      30.06F
AUGUSTA-BUSH   SUNNY     72  43  35 W3        30.02F
6HR MIN TEMP:  44; 6HR MAX TEMP:  73;

AUGUSTA-DANIEL SUNNY     73  43  33 CALM      30.03F
SWAINSBORO     FAIR      75  45  33 MISG      30.02F
VIDALIA        SUNNY     73  46  38 NE6       30.02F
ALMA           SUNNY     73  42  32 S5        30.02F
6HR MIN TEMP:  47; 6HR MAX TEMP:  73;

WAYCROSS       SUNNY     76  46  35 NE3       30.01F
JESUP          FAIR      75  46  35 N3        30.01F
BRUNSWICK      SUNNY     73  43  33 N5        30.01F
SAINT SIMONS   SUNNY     72  48  42 VRB7      30.02F
6HR MIN TEMP:  52; 6HR MAX TEMP:  72;


$$

SCZ027-028-034-036>038-045-046-048>050-GAZ119-141-241900-
...LAKE AND SUPPLEMENTAL COASTAL OBSERVATIONS...

STATION/POSITION TIME  TEMP    WIND        PRES    WAVE   SWELL
                       AIR SEA DIR/SP/G            HT/PER HT/PER/DIR
                 (UTC) (F)     (DEG/KT/KT) (MB)    (FT/S) (FT/S/D)
UPR LAKE MARION  NOT AVBL
WINYAH BAY       1800   64     100/  3     1016.0S
LAKE MURRAY      1700   66     190/  4/  7 1016.9F
ACE BASIN NERRS  1800   73        CALM     1017.0S
FORT PULASKI     1800   68      80/  4/  5 1016.7F
SAPELO ISLAND    NOT AVBL

$$

ANZ835-935-AMZ111-154-330-350-352-354-374-450-454-472-241900-
...C-MAN AND BUOY OBSERVATIONS...

STATION/POSITION TIME  TEMP    WIND        PRES    WAVE   SWELL
                       AIR SEA DIR/SP/G            HT/PER HT/PER/DIR
                 (UTC) (F)     (DEG/KT/KT) (MB)    (FT/S) (FT/S/D)
FOLLY BEACH CMAN 1800   68     100/  3/  3 1016.7F
BUOY 41004       1800   68 78  340/  6/ 10 1016.0F   3/11   3/11
BUOY 41008       1800   68 75   20/  8/ 10 1016.6F   2/11   2/ 80/11
5E ST. MARYS GA  1800      76                N/A     2/11   2/ 90/11
FRYING PAN BUOY  1800   65 73   20/  4/  6 1016.7F   3/10   2/ 90/10
BUOY 41025       1800   62     310/ 14/ 17 1014.7F   4/10   2/ 40/10
CAPE LOOKOUT NC  1800   65     320/  4/  6 1015.1F
BUOY 41002       1703   73 78  310/  8/ 10 1014.7    4/10   3/360/10
BUOY 41010       1800   74 81   60/ 10/ 12 1014.5F   3/ 9   2/ 50/ 9
BUOY 41012       NOT AVBL
ST AUGUSTINE FL  1800   69     350/ 16/ 18 1016.6F
CAPERS NEARSHORE NOT AVBL
FRIPP NEARSHORE  NOT AVBL


$$



USA.gov is the U.S. government's official web portal to all federal, state and local government web resources and services.